EHI
0 0 0 0 0 0 0 0 0 2 5 10 16 25 33 37 37 37 37 38 40 38 37 39 43 44 42 39 37 39 44 47 46 43 41 39 39 38 34 28 20 16 15 16
0 0 0 0 0 0 1 2 2 4 7 11 18 26 32 36 36 35 34 35 36 36 36 36 39 41 41 39 37 39 43 44 44 42 40 40 40 38 33 25 19 16 16 17
0 0 0 0 0 2 4 5 6 8 12 16 22 28 33 37 38 35 34 34 35 36 35 34 35 37 40 40 39 41 43 44 44 43 41 40 40 38 31 24 19 17 16 16
0 0 0 0 0 2 5 8 12 16 21 25 29 32 35 37 37 34 33 35 38 38 36 34 34 36 37 38 40 40 42 43 44 43 41 38 38 37 32 26 21 17 15 14
0 0 0 0 1 2 5 11 16 21 26 29 31 34 34 32 33 32 32 36 39 38 38 37 36 34 32 32 33 34 35 37 38 38 36 34 34 34 32 28 22 16 14 13
0 0 0 1 2 2 5 12 17 19 21 23 27 30 30 30 32 34 36 38 39 37 37 38 35 30 27 26 26 26 26 28 29 30 31 31 30 29 29 27 20 14 11 9
0 0 0 2 3 2 4 10 15 16 15 17 21 25 30 33 36 37 38 38 37 36 35 33 29 26 24 24 25 24 21 21 23 24 26 27 26 25 24 21 16 11 6 4
0 0 1 3 5 4 4 9 13 13 14 15 18 25 33 38 38 37 35 34 33 32 30 27 24 24 24 23 22 21 19 18 18 19 20 23 23 22 19 17 14 10 4 1
1 1 2 4 6 6 8 11 13 13 15 17 20 28 35 38 37 34 31 28 28 27 25 21 20 21 19 17 16 16 15 15 14 14 16 18 18 18 16 14 12 9 4 2
4 5 6 7 8 9 12 14 14 15 17 19 22 29 35 35 33 30 28 26 25 24 21 17 14 13 11 10 10 11 11 10 10 10 11 12 13 12 12 11 10 8 5 4
5 7 8 8 8 10 14 16 15 16 18 21 24 29 32 32 29 27 25 24 24 22 18 13 10 8 6 6 7 8 8 7 6 5 6 7 7 7 6 6 6 5 4 4
3 3 4 5 7 11 14 15 15 16 19 22 25 27 29 28 26 25 23 22 21 19 14 9 8 7 7 6 7 8 8 6 4 2 2 4 4 4 3 3 2 1 2 2
2 2 2 4 8 12 15 16 16 16 18 20 22 24 25 25 24 23 21 19 17 14 11 8 6 7 7 6 6 7 8 7 4 2 2 3 3 3 2 1 0 0 0 1
4 4 4 6 9 12 15 17 17 16 16 16 19 21 22 22 20 18 16 14 12 11 10 8 6 5 4 4 4 6 7 7 4 2 2 3 3 3 3 2 0 0 0 0
6 6 6 7 8 10 12 13 14 14 14 14 17 18 17 16 15 13 11 9 9 10 9 8 5 4 4 4 4 5 7 6 4 3 3 3 3 3 3 2 0 0 0 0
8 8 7 7 7 8 8 8 9 10 10 10 12 13 11 10 9 7 6 6 6 7 6 6 5 5 5 6 6 6 6 6 5 4 3 3 2 2 2 2 1 1 1 1
6 6 6 6 6 6 5 5 5 6 6 6 7 7 6 4 3 3 2 3 4 4 4 4 4 5 6 6 6 6 5 5 5 4 3 2 1 1 1 1 2 2 2 2
5 4 4 5 5 4 4 4 4 4 4 5 4 3 1 1 1 1 0 1 3 3 3 3 3 4 5 5 5 4 3 3 3 3 3 2 1 0 0 0 1 3 3 2
3 3 3 3 3 3 2 3 3 3 3 3 2 1 0 0 0 0 0 1 2 2 2 2 1 1 2 2 2 1 1 1 1 2 2 2 1 0 0 0 1 2 3 3
1 1 1 1 1 1 1 1 2 2 1 1 1 0 0 0 0 0 0 0 1 1 1 1 0 0 0 0 0 0 0 0 0 1 1 1 0 0 0 0 1 2 2 2
0 0 0 0 0 0 0 0 1 1 0 0 0 0 0 0 0 0 0 0 0 0 0 0 0 0 0 0 0 0 0 0 0 0 0 0 0 0 0 0 0 1 1 1
0 0 0 0 0 0 0 0 0 0 0 0 0 0 0 0 0 0 0 0 0 0 0 0 0 0 0 0 0 0 0 0 0 0 0 0 0 0 0 0 0 0 0 0
0 0 0 0 0 0 0 0 0 0 0 0 0 0 0 0 0 0 0 0 0 0 0 0 0 0 0 0 0 0 0 0 0 0 0 0 0 0 0 0 0 0 0 0
1 1 1 1 1 1 1 0 0 0 0 0 0 0 0 0 0 0 0 0 0 0 0 0 0 0 0 0 0 0 0 0 0 0 0 0 0 0 0 0 0 0 0 0
2 2 2 2 2 2 1 0 0 0 0 0 0 0 0 0 0 0 0 0 0 0 0 0 0 0 0 0 0 0 0 0 0 0 0 0 0 0 0 0 0 0 0 0
1 2 2 3 3 2 1 0 0 0 0 0 0 0 0 0 0 0 0 0 0 0 0 0 0 0 0 0 0 0 0 0 0 0 0 0 0 0 0 0 0 0 0 0
0 1 1 2 3 1 0 0 0 0 0 0 0 0 0 0 0 0 0 0 0 0 0 0 0 0 0 0 0 0 0 0 0 0 0 0 0 0 0 0 0 0 0 0
Wind_Speed
4 3 1 1 1 1 4 8 8 7 7 8 7 8 8 8 8 8 6 6 7 6 5 5 5 5 5 4 3 3 4 4 4 3 3 3 3 3 3 3 2 2 2 2
2 2 2 1 2 2 3 5 6 6 3 4 5 7 8 8 10 9 6 6 6 6 6 5 5 5 5 4 4 4 4 4 4 3 3 3 3 3 3 3 2 3 3 3
2 3 3 3 4 3 2 2 7 7 6 6 6 8 10 10 10 9 7 7 7 6 5 5 5 5 5 5 5 5 4 4 4 4 4 3 3 4 3 3 3 4 3 4
1 3 2 8 4 2 4 1 4 5 6 9 8 7 6 9 11 9 8 7 7 6 6 5 4 4 5 5 5 5 4 3 3 4 4 3 3 3 3 3 3 3 3 3
3 2 4 6 3 0 3 0 1 7 8 8 9 9 4 4 7 8 7 7 6 5 6 6 6 6 7 6 5 5 4 3 3 3 4 4 3 3 3 3 3 4 3 3
4 3 5 7 5 2 6 1 2 7 10 10 8 6 3 4 7 8 7 7 6 6 7 7 5 6 7 5 5 4 3 3 3 3 3 3 3 4 4 4 4 5 5 4
4 3 5 6 6 3 5 5 3 5 9 9 6 6 7 7 8 9 9 9 8 8 7 5 5 7 7 6 4 3 3 4 3 3 3 3 3 3 4 5 5 5 5 4
4 3 6 6 3 3 5 3 3 4 6 7 7 9 9 9 9 10 10 9 8 8 6 5 5 7 7 5 3 4 5 4 4 3 3 3 4 3 3 4 5 5 5 4
6 7 5 1 2 2 3 4 3 4 5 8 10 9 8 8 9 9 9 8 7 8 7 5 5 6 6 4 4 5 5 5 4 4 4 4 4 4 3 3 3 3 3 3
1 2 2 1 2 2 3 4 4 5 7 9 10 10 9 8 8 7 7 7 7 8 7 5 4 5 5 4 5 6 5 4 3 4 5 5 4 3 3 3 3 3 3 3
1 1 3 4 3 3 5 6 7 7 6 7 10 10 9 8 8 7 7 6 6 7 7 5 5 4 4 4 5 6 5 4 4 4 4 5 5 4 3 2 3 4 3 3
4 4 2 2 1 4 6 5 7 8 6 6 8 9 8 7 7 7 7 7 7 7 6 5 5 4 3 4 5 5 4 4 3 3 3 4 4 5 9 7 8 7 6 4
3 2 2 1 1 3 5 5 6 6 6 6 6 8 8 7 6 7 8 8 8 7 6 6 5 4 3 4 4 5 4 4 3 3 3 3 3 4 4 5 9 8 7 6
2 3 3 2 2 3 5 6 7 7 6 6 6 7 7 7 7 6 6 6 7 7 7 6 5 4 3 4 5 4 4 5 4 3 3 3 3 2 3 3 3 3 4 6
1 3 4 2 3 4 5 7 8 7 6 6 6 7 7 7 7 6 5 5 7 7 6 5 5 3 3 4 5 4 4 3 3 3 3 3 3 3 3 3 3 2 2 3
3 3 4 5 4 5 7 8 8 6 5 6 6 6 7 7 7 6 5 5 7 6 5 5 4 3 3 4 4 4 3 6 5 3 3 2 2 3 3 3 3 2 2 1
5 3 3 3 4 5 6 6 7 6 6 7 7 7 8 8 7 6 4 4 5 5 5 5 4 3 4 4 4 3 3 4 5 4 3 2 2 3 3 3 3 2 2 2
5 5 6 5 5 5 5 5 6 7 6 6 7 7 8 8 8 7 6 5 6 5 4 3 4 4 4 4 4 3 3 3 3 3 2 2 2 2 3 3 3 3 2 2
4 4 4 5 6 5 5 5 6 6 6 6 7 7 7 6 7 6 6 7 7 5 2 3 6 5 4 4 5 3 3 3 3 3 3 4 3 2 3 3 3 2 3 2
4 5 5 5 6 6 7 6 7 7 7 7 7 7 7 6 5 5 6 4 3 3 4 4 4 3 3 3 5 3 3 4 3 3 2 3 3 3 3 3 3 3 3 3
5 5 6 6 6 6 7 8 7 7 6 7 7 8 7 6 6 6 6 4 2 3 4 5 3 3 2 3 4 3 3 3 3 3 3 3 3 3 3 3 3 3 3 3
4 5 5 6 6 5 5 5 7 7 7 6 6 6 7 6 6 5 4 4 4 5 4 3 2 3 4 4 3 3 3 3 3 3 3 3 3 3 3 3 3 3 3 3
4 4 5 6 6 6 5 5 6 7 7 6 6 6 6 5 5 5 4 2 3 5 4 3 4 6 5 3 3 3 3 3 3 3 3 3 3 3 3 3 3 3 3 3
5 4 5 5 6 7 5 4 5 5 6 5 5 6 6 5 3 2 3 6 7 6 3 4 6 6 4 2 3 3 3 3 3 3 3 3 3 3 3 3 3 3 3 3
4 5 6 7 6 5 5 6 6 6 5 4 4 4 4 4 4 4 4 5 6 6 3 4 6 5 3 3 3 4 3 3 4 4 3 3 3 3 3 3 3 2 2 2
4 4 4 5 5 5 4 4 4 4 5 4 3 3 4 4 5 4 4 4 5 5 3 3 3 3 3 3 4 4 4 4 4 3 3 3 3 3 3 3 3 2 2 2
4 4 4 4 3 4 4 4 5 4 4 5 4 4 4 4 5 5 5 4 3 3 3 2 3 3 3 3 3 3 3 3 3 3 3 3 2 2 2 3 2 2 2 2
Wind_Direction
200 218 176 179 241 181 155 172 171 201 189 202 185 153 143 127 117 110 111 115 113 114 124 127 125 127 136 140 137 148 146 150 161 161 149 139 133 128 126 125 131 123 110 116
345 351 29 350 281 205 187 169 160 151 197 201 161 128 127 130 125 124 135 133 126 128 129 130 138 135 134 133 140 142 141 150 145 138 134 135 135 127 121 115 110 101 92 95
299 327 42 300 255 188 174 172 151 170 198 160 147 144 147 142 134 134 145 141 139 138 137 136 140 141 143 141 132 126 127 128 131 141 140 142 139 126 127 125 114 106 102 97
89 57 215 245 262 142 140 130 143 144 152 152 151 148 137 136 139 146 144 135 135 134 128 124 122 118 119 112 110 110 105 102 107 117 125 121 120 127 131 120 116 112 105 104
113 141 278 299 316 61 131 350 156 136 134 127 117 90 76 125 132 139 141 136 130 124 119 110 106 109 107 107 108 106 109 109 103 111 116 118 129 132 122 119 110 99 92 90
124 145 221 254 280 279 103 6 278 140 141 140 126 122 183 157 130 125 120 117 113 108 101 98 99 101 98 98 100 105 110 102 101 115 124 130 131 122 113 111 108 103 86 76
145 183 255 269 294 51 115 218 225 150 146 145 154 165 160 139 129 128 122 115 110 105 101 103 108 104 100 96 99 110 99 88 80 84 106 117 113 112 117 114 110 101 91 73
144 180 249 300 10 116 202 206 152 140 141 130 125 121 127 127 127 123 118 115 114 110 103 96 97 103 99 97 98 90 84 80 74 67 77 91 100 99 105 113 111 106 94 76
180 208 231 259 143 196 154 134 129 127 127 126 123 128 129 126 125 125 125 122 115 112 105 93 88 100 105 99 95 91 82 74 69 67 65 73 91 102 102 103 108 112 109 100
115 278 287 19 67 61 108 123 119 122 125 126 129 134 130 130 130 125 119 118 116 112 108 99 90 90 102 101 100 96 93 85 78 79 72 65 70 80 93 100 110 110 115 115
155 281 12 16 43 74 74 81 86 88 101 122 128 132 133 133 133 129 121 116 118 119 117 113 103 94 94 104 109 103 100 97 91 87 87 77 70 61 75 75 119 128 130 133
211 221 177 247 295 93 90 95 106 102 89 104 123 130 128 130 134 132 127 123 121 118 118 114 107 99 93 103 115 116 109 102 101 101 96 96 95 71 51 65 74 83 97 114
189 164 145 163 36 72 92 99 105 103 110 108 107 118 121 122 123 124 126 129 130 128 125 119 110 100 94 99 104 112 119 118 111 108 109 111 111 111 94 55 55 61 67 79
141 103 73 51 88 73 86 98 94 87 90 98 108 110 115 114 113 116 124 130 127 124 124 121 114 107 105 103 102 106 115 124 124 123 123 120 119 121 122 118 94 50 41 57
94 120 143 145 105 85 102 107 101 99 96 91 105 110 119 124 123 123 124 125 120 118 122 122 121 120 112 112 113 116 117 121 123 123 120 119 120 118 115 112 114 107 79 49
121 110 116 116 119 115 114 117 119 121 122 121 117 115 115 117 116 115 119 129 126 126 129 128 129 135 123 118 119 114 114 122 122 122 118 117 121 121 120 119 120 118 118 121
136 141 134 130 138 132 132 130 133 144 140 130 129 124 119 115 111 111 113 119 123 125 126 128 134 127 119 118 116 112 108 115 115 111 118 127 131 133 132 131 134 133 136 136
170 174 168 155 144 132 129 127 128 129 132 132 127 125 129 133 136 138 139 132 115 102 101 116 126 119 112 110 110 107 108 109 113 117 123 124 129 132 129 129 133 130 118 105
153 156 156 142 139 137 134 136 134 128 127 131 132 132 135 137 139 145 146 137 129 125 134 120 120 114 113 116 115 109 112 113 110 110 117 126 121 120 124 125 123 118 118 113
142 143 144 142 146 143 145 144 139 135 133 133 133 131 132 134 137 140 131 128 143 151 143 124 113 108 109 111 110 112 116 118 118 120 117 123 127 130 132 131 126 121 119 123
134 132 136 143 140 141 148 144 140 137 135 131 133 140 140 137 137 136 131 126 135 125 119 117 113 115 113 118 112 112 116 118 118 121 121 123 128 131 133 132 129 127 126 123
126 124 129 133 127 129 137 138 138 137 133 129 127 128 131 131 129 122 125 143 149 132 119 115 116 120 122 119 112 114 116 116 114 114 114 117 122 126 127 126 124 118 116 117
125 126 128 131 134 133 130 138 140 137 137 139 138 136 135 134 135 137 139 150 138 132 125 128 130 124 122 117 118 116 114 114 114 114 112 111 115 121 125 121 119 123 125 120
131 135 139 135 129 129 133 140 136 132 133 132 130 134 133 123 110 118 134 138 137 133 129 137 132 123 113 111 115 116 115 114 112 110 107 104 104 109 111 112 111 115 121 121
129 131 133 132 131 137 142 133 122 119 122 122 121 122 125 130 136 140 134 139 140 133 126 138 137 129 115 112 117 118 119 121 120 119 115 113 111 110 109 109 110 113 118 122
137 138 141 141 141 138 134 129 127 132 131 127 124 122 120 121 127 132 133 137 138 134 133 134 132 129 125 124 123 124 122 121 117 116 119 118 114 110 109 108 109 114 117 120
119 120 118 114 120 127 128 132 136 142 141 137 133 135 134 133 134 138 138 138 138 135 129 126 126 128 127 127 125 124 122 118 117 118 120 119 117 118 123 122 121 116 114 114